Location: Unspecified
(43.4354°N, 0.0000°E)
Time: 01:22:46
(UTC+00:00)

A-11 Canister half - Pass Details

Date: 23 June 2019
Orbit: 1514 x 1685 km, 47.2° (Epoch: 22 July)

Event Time Altitude Azimuth Distance (km) Brightness Sun altitude
Rises 08:59:14 0° 208° (SSW) 4,918 11.5 47.6°
Reaches altitude 10° 09:02:41 10° 201° (SSW) 3,921 11.2 48.2°
Maximum altitude 09:11:44 40° 136° (SE) 2,268 11.4 49.8°
Drops below altitude 10° 09:20:33 10° 72° (ENE) 3,828 11.7 51.3°
Sets 09:23:50 0° 65° (ENE) 4,791 12.0 51.9°
